Weather History for Statesville, NC

Change the Weather History Date:

Monday, March 3, 2014

  Actual Average (KHKY) Record (KHKY)
Temperature  
Mean Temperature 42 °F -  
Max Temperature 61 °F 59 °F 83 °F (1976)
Min Temperature 24 °F 37 °F 9 °F (1980)
Degree Days  
Heating Degree Days 22    
Moisture  
Dew Point 35 °F    
Average Humidity 80    
Maximum Humidity 95    
Minimum Humidity 55    
Precipitation  
Precipitation 0.19 in - - ()
Sea Level Pressure  
Sea Level Pressure 29.97 in    
Wind  
Wind Speed 9 mph (ENE)    
Max Wind Speed 25 mph    
Max Gust Speed 32 mph    
Visibility 8 miles    
Events Rain , Snow    
Averages and records for this station are not official NWS values.
T = Trace of Precipitation, MM = Missing Value Source: NWS Daily Summary

Daily Weather History Graph

Daily Weather History Graph

Search for Another Location

Airport:

Trip Planner

Search our weather history database for the weather conditions in past years. The results will help you decide how hot, cold, wet, or windy it might be!

Date:

Astronomy

Mar. 03, 2014 Rise Set
Actual Time 6:51 AM EST 6:20 PM EST
Civil Twilight 6:25 AM EST 6:46 PM EST
Nautical Twilight 5:56 AM EST 7:16 PM EST
Astronomical Twilight 5:26 AM EST 7:45 PM EST
Moon 8:04 AM EST (3/3) 9:14 PM EST (3/3)
Length of Visible Light 12h 20m
Length of Day
11h 29m
Waxing Crescent, 8% of the Moon is Illuminated
Mar 3
Waxing Crescent
Mar 8
First Quarter
Mar 16
Full
Mar 23
Last Quarter
Mar 30
New

Hourly Weather History & Observations

Time (EST) Temp. Windchill Dew Point Humidity Pressure Visibility Wind Dir Wind Speed Gust Speed Precip Events Conditions
12:15 AM 61.7 °F - 45.1 °F 55% 29.88 in 10.0 mi SW 8.1 mph - N/A   Clear
12:35 AM 61.2 °F - 45.0 °F 55% 29.86 in 10.0 mi SW 5.8 mph - N/A   Clear
12:55 AM 61.2 °F - 44.8 °F 55% 29.86 in 10.0 mi SSW 11.5 mph 16.1 mph N/A   Clear
1:15 AM 60.8 °F - 44.8 °F 56% 29.86 in 10.0 mi SW 5.8 mph 16.1 mph N/A   Clear
1:35 AM 60.3 °F - 44.6 °F 56% 29.85 in 10.0 mi SW 8.1 mph - N/A   Clear
1:55 AM 59.9 °F - 44.8 °F 57% 29.84 in 10.0 mi SW 9.2 mph 18.4 mph N/A   Clear
2:15 AM 59.4 °F - 44.8 °F 58% 29.84 in 10.0 mi SW 10.4 mph - N/A   Clear
2:35 AM 58.8 °F - 44.6 °F 59% 29.84 in 10.0 mi SSW 8.1 mph 16.1 mph N/A   Clear
2:55 AM 58.1 °F - 44.6 °F 61% 29.82 in 10.0 mi SSW 5.8 mph - N/A   Clear
3:15 AM 57.6 °F - 44.6 °F 62% 29.80 in 10.0 mi SSW 4.6 mph - N/A   Clear
3:35 AM 57.6 °F - 44.6 °F 62% 29.80 in 10.0 mi SW 5.8 mph - N/A   Clear
3:55 AM 57.9 °F - 44.2 °F 60% 29.79 in 10.0 mi SW 10.4 mph - N/A   Mostly Cloudy
4:15 AM 57.6 °F - 44.1 °F 61% 29.79 in 10.0 mi SSW 8.1 mph 16.1 mph N/A   Scattered Clouds
4:35 AM 57.6 °F - 44.1 °F 61% 29.79 in 10.0 mi SSW 8.1 mph - N/A   Scattered Clouds
4:55 AM 57.4 °F - 44.2 °F 62% 29.79 in 10.0 mi SSW 6.9 mph - N/A   Mostly Cloudy
5:15 AM 57.2 °F - 44.2 °F 62% 29.80 in 10.0 mi SSW 5.8 mph - N/A   Overcast
5:35 AM 57.2 °F - 44.1 °F 62% 29.79 in 10.0 mi SSW 6.9 mph - N/A   Overcast
5:55 AM 57.2 °F - 43.9 °F 61% 29.79 in 10.0 mi SSW 6.9 mph - N/A   Overcast
6:15 AM 57.4 °F - 43.7 °F 60% 29.77 in 10.0 mi South 8.1 mph - N/A   Overcast
6:35 AM 57.6 °F - 43.3 °F 59% 29.76 in 10.0 mi SSW 6.9 mph - N/A   Overcast
6:55 AM 57.4 °F - 43.3 °F 59% 29.77 in 10.0 mi SSW 5.8 mph - N/A   Overcast
7:15 AM 57.2 °F - 43.7 °F 61% 29.76 in 10.0 mi South 4.6 mph - N/A   Overcast
7:35 AM 55.0 °F - 46.2 °F 72% 29.80 in 10.0 mi WNW 3.5 mph - N/A Rain Light Rain
7:55 AM 52.7 °F - 48.0 °F 84% 29.80 in 4.0 mi Calm Calm - 0.10 in Rain Rain
8:15 AM 51.6 °F - 48.9 °F 90% 29.82 in 7.0 mi Calm Calm - 0.01 in Rain Light Rain
8:35 AM 51.8 °F - 49.1 °F 90% 29.84 in 7.0 mi Calm Calm - 0.03 in Rain Light Rain
8:55 AM 51.3 °F - 50.0 °F 95% 29.84 in 7.0 mi ENE 4.6 mph - 0.04 in Rain Light Rain
9:15 AM 51.6 °F - 49.5 °F 92% 29.86 in 7.0 mi NE 3.5 mph - 0.01 in Rain Light Rain
9:35 AM 51.8 °F - 50.0 °F 94% 29.85 in 7.0 mi ENE 6.9 mph - 0.01 in Rain Light Rain
9:55 AM 43.2 °F 34.5 °F 41.5 °F 94% 29.86 in 10.0 mi NE 20.7 mph 25.3 mph 0.01 in   Overcast
10:15 AM 41.2 °F 34.1 °F 39.6 °F 94% 29.90 in 10.0 mi NE 12.7 mph - N/A Rain Light Rain
10:35 AM 40.6 °F 33.0 °F 39.2 °F 95% 29.90 in 10.0 mi ENE 13.8 mph 24.2 mph N/A   Overcast
10:55 AM 39.6 °F 30.6 °F 37.4 °F 92% 29.90 in 10.0 mi NE 17.3 mph 24.2 mph N/A   Overcast
11:15 AM 38.8 °F 29.4 °F 36.3 °F 91% 29.91 in 10.0 mi NE 18.4 mph 24.2 mph N/A   Overcast
11:35 AM 37.6 °F 27.4 °F 34.7 °F 89% 29.92 in 10.0 mi NE 19.6 mph 25.3 mph N/A   Overcast
11:55 AM 36.5 °F 27.0 °F 34.3 °F 92% 29.93 in 3.0 mi NE 16.1 mph 26.5 mph 0.01 in Rain Light Rain
12:15 PM 35.6 °F 24.8 °F 33.8 °F 93% 29.93 in 5.0 mi NE 19.6 mph 23.0 mph 0.01 in Rain Light Rain
12:35 PM 34.9 °F 24.9 °F 33.4 °F 94% 29.95 in 5.0 mi NNE 16.1 mph 26.5 mph 0.01 in Rain Light Rain
12:55 PM 34.3 °F 23.9 °F 32.9 °F 94% 29.94 in 7.0 mi NE 17.3 mph 31.1 mph 0.01 in Rain Light Rain
1:15 PM 34.2 °F 23.6 °F 32.4 °F 93% 29.95 in 7.0 mi NE 17.3 mph 25.3 mph N/A Rain Light Rain
1:35 PM 33.4 °F 20.6 °F 31.6 °F 93% 29.97 in 3.0 mi NE 25.3 mph 32.2 mph N/A Rain Light Rain
1:55 PM 32.2 °F 20.0 °F 30.9 °F 95% 29.98 in 4.0 mi NE 20.7 mph 28.8 mph N/A Rain Light Rain
2:15 PM 32.0 °F 20.5 °F 30.2 °F 93% 30.00 in 4.0 mi NE 18.4 mph 27.6 mph N/A   Light Drizzle
2:35 PM 32.0 °F 20.5 °F 30.0 °F 92% 30.01 in 5.0 mi NE 18.4 mph 25.3 mph N/A   Overcast
2:55 PM 31.8 °F 21.0 °F 30.0 °F 93% 30.01 in 3.0 mi NE 16.1 mph 20.7 mph N/A   Light Freezing Rain
3:15 PM 31.6 °F 22.6 °F 29.8 °F 93% 30.03 in 5.0 mi ENE 11.5 mph 19.6 mph N/A   Overcast
3:35 PM 31.8 °F 23.9 °F 30.2 °F 94% 30.02 in 4.0 mi ENE 9.2 mph 17.3 mph N/A   Overcast
3:55 PM 31.8 °F 23.9 °F 30.2 °F 94% 30.04 in 10.0 mi ENE 9.2 mph 16.1 mph N/A   Overcast
4:10 PM 31.8 °F 22.8 °F 30.2 °F 94% 30.04 in 5.0 mi ENE 11.5 mph - N/A Snow Light Snow
4:35 PM 31.5 °F 24.2 °F 29.7 °F 93% 30.04 in 10.0 mi ENE 8.1 mph 16.1 mph 0.01 in   Overcast
4:55 PM 31.1 °F 21.9 °F 29.1 °F 92% 30.06 in 7.0 mi ENE 11.5 mph 17.3 mph 0.01 in   Overcast
5:15 PM 30.2 °F 19.3 °F 28.0 °F 92% 30.07 in 10.0 mi ENE 15.0 mph - N/A   Overcast
5:35 PM 29.8 °F 21.5 °F 27.9 °F 92% 30.09 in 1.5 mi NE 9.2 mph - 0.01 in Snow Light Snow
5:55 PM 28.9 °F 18.2 °F 26.4 °F 90% 30.10 in 7.0 mi ENE 13.8 mph 17.3 mph 0.01 in   Overcast
6:15 PM 28.2 °F 17.2 °F 25.3 °F 89% 30.11 in 10.0 mi NE 13.8 mph 18.4 mph N/A   Overcast
6:35 PM 28.2 °F 19.5 °F 25.2 °F 88% 30.13 in 10.0 mi NE 9.2 mph - N/A   Overcast
6:55 PM 28.0 °F 20.0 °F 25.7 °F 91% 30.14 in 10.0 mi NE 8.1 mph - N/A   Overcast
7:15 PM 27.5 °F 15.9 °F 23.9 °F 86% 30.14 in 10.0 mi NE 15.0 mph 18.4 mph N/A   Overcast
7:35 PM 27.3 °F 17.7 °F 23.9 °F 87% 30.16 in 10.0 mi NE 10.4 mph - N/A   Overcast
7:55 PM 27.1 °F 17.5 °F 24.3 °F 89% 30.17 in 10.0 mi NE 10.4 mph 16.1 mph N/A   Overcast
8:15 PM 27.1 °F 19.7 °F 24.4 °F 90% 30.18 in 10.0 mi NE 6.9 mph - N/A   Overcast
8:35 PM 27.1 °F 18.9 °F 24.1 °F 88% 30.19 in 10.0 mi NE 8.1 mph - N/A   Overcast
8:50 PM 27.1 °F 17.5 °F 24.3 °F 89% 30.19 in 10.0 mi NE 10.4 mph - N/A   Overcast
9:15 PM 27.1 °F 18.2 °F 23.9 °F 88% 30.23 in 10.0 mi NE 9.2 mph - N/A   Overcast
9:35 PM 27.1 °F 17.5 °F 23.7 °F 87% 30.22 in 10.0 mi NE 10.4 mph - N/A   Overcast
9:55 PM 26.6 °F 17.5 °F 22.8 °F 86% 30.20 in 10.0 mi NE 9.2 mph - N/A   Overcast
10:15 PM 26.4 °F 18.0 °F 21.9 °F 83% 30.22 in 10.0 mi NE 8.1 mph - N/A   Scattered Clouds
10:35 PM 26.1 °F 17.6 °F 21.0 °F 81% 30.23 in 10.0 mi NE 8.1 mph - N/A   Clear
10:55 PM 25.7 °F 18.0 °F 20.3 °F 80% 30.22 in 10.0 mi NE 6.9 mph - N/A   Clear
11:15 PM 25.3 °F 18.5 °F 20.1 °F 81% 30.22 in 10.0 mi NE 5.8 mph - N/A   Clear
11:35 PM 24.8 °F 16.9 °F 19.0 °F 79% 30.24 in 10.0 mi NE 6.9 mph - N/A   Clear
11:55 PM 24.6 °F 15.1 °F 17.8 °F 75% 30.24 in 10.0 mi NE 9.2 mph - N/A   Scattered Clouds